,,,PA_Meas_PMT16A,,PR_Meas_QMR101_102,,RH_Meas_QMH101,,SR_Meas_QMS101,,TA_Meas_QMH101,,GenWind,,GenWind,
date,time,status,PA,status,PR,status,RH,status,SR,status,TA,status,DirAvg,status,SpdAvg,
2008-06-21, 00:00:05,VALID,1004.28,VALID,0,VALID,90.8371,VALID,0,VALID,25.0117,VALID,37,VALID,0.14375,
2008-06-21, 00:01:05,VALID,1004.3,VALID,0,VALID,90.7989,VALID,0,VALID,24.9904,VALID,37,VALID,0.0714844,
2008-06-21, 00:02:05,VALID,1004.28,VALID,0,VALID,90.7379,VALID,0,VALID,25.0312,VALID,37,VALID,0,
2008-06-21, 00:03:05,VALID,1004.32,VALID,0,VALID,90.7608,VALID,0,VALID,25.0098,VALID,37,VALID,0.278516,
2008-06-21, 00:04:05,VALID,1004.32,VALID,0,VALID,90.7455,VALID,0,VALID,24.9904,VALID,37,VALID,0.257031,
2008-06-21, 00:05:05,VALID,1004.31,VALID,0,VALID,90.8676,VALID,0,VALID,24.9709,VALID,37,VALID,0.153516,
2008-06-21, 00:06:05,VALID,1004.29,VALID,0,VALID,90.982,VALID,0,VALID,24.9514,VALID,37,VALID,0.0796875,
2008-06-21, 00:07:05,VALID,1004.26,VALID,0,VALID,91.0659,VALID,0,VALID,24.9319,VALID,37,VALID,0,
2008-06-21, 00:08:05,VALID,1004.26,VALID,0,VALID,91.1651,VALID,0,VALID,24.9125,VALID,37,VALID,0.236328,
2008-06-21, 00:09:05,VALID,1004.25,VALID,0,VALID,91.188,VALID,0,VALID,24.8735,VALID,37,VALID,0.338672,
2008-06-21, 00:10:05,VALID,1004.24,VALID,0,VALID,91.2948,VALID,0,VALID,24.8735,VALID,37,VALID,0.325781,
2008-06-21, 00:11:05,VALID,1004.23,VALID,0,VALID,90.9134,VALID,0,VALID,24.8346,VALID,74,VALID,0.892187,
2008-06-21, 00:12:05,VALID,1004.18,VALID,0,VALID,91.0507,VALID,0,VALID,24.893,VALID,73,VALID,0.437109,
2008-06-21, 00:13:05,VALID,1004.19,VALID,0,VALID,90.9134,VALID,0.100563,VALID,24.8911,VALID,72,VALID,0.202734,
2008-06-21, 00:14:05,VALID,1004.15,VALID,0,VALID,90.8676,VALID,0.100563,VALID,24.8911,VALID,72,VALID,0.00195313,
2008-06-21, 00:15:05,VALID,1004.13,VALID,0,VALID,90.8447,VALID,0.100563,VALID,24.9319,VALID,72,VALID,0,
2008-06-21, 00:16:05,VALID,1004.11,VALID,0,VALID,90.9439,VALID,0.100563,VALID,24.93,VALID,72,VALID,0.328516,
2008-06-21, 00:17:05,VALID,1004.07,VALID,0,VALID,90.9668,VALID,0.100563,VALID,24.9319,VALID,67,VALID,0.307813,
2008-06-21, 00:18:05,VALID,1004.05,VALID,0,VALID,90.9363,VALID,0,VALID,24.8716,VALID,38,VALID,0.547656,
2008-06-21, 00:19:05,VALID,1004.05,VALID,0,VALID,91.1956,VALID,0.100563,VALID,24.8716,VALID,38,VALID,0.421094,
2008-06-21, 00:20:05,VALID,1004.05,VALID,0,VALID,91.3864,VALID,0,VALID,24.8327,VALID,38,VALID,0.476953,
2008-06-21, 00:21:05,VALID,1004.06,VALID,0,VALID,91.5313,VALID,0.100563,VALID,24.8132,VALID,38,VALID,0.352344,
2008-06-21, 00:22:05,VALID,1004.05,VALID,0,VALID,91.6915,VALID,0.100563,VALID,24.7743,VALID,38,VALID,0.405469,
2008-06-21, 00:23:05,VALID,1004.03,VALID,0,VALID,91.8594,VALID,0.100563,VALID,24.7353,VALID,38,VALID,0.371484,
2008-06-21, 00:24:05,VALID,1004.05,VALID,0,VALID,91.989,VALID,0.100563,VALID,24.7159,VALID,38,VALID,0.461719,
2008-06-21, 00:25:05,VALID,1004.06,VALID,0,VALID,92.0882,VALID,0.100563,VALID,24.6769,VALID,38,VALID,0.324609,
2008-06-21, 00:26:05,VALID,1004.06,VALID,0,VALID,92.1492,VALID,0.100563,VALID,24.6361,VALID,36,VALID,0.581641,
2008-06-21, 00:27:05,VALID,1004.06,VALID,0,VALID,92.2942,VALID,0.100563,VALID,24.6185,VALID,35,VALID,0.342578,
2008-06-21, 00:28:05,VALID,1004.08,VALID,0,VALID,92.3934,VALID,0,VALID,24.6204,VALID,35,VALID,0.248828,
2008-06-21, 00:29:05,VALID,1004.1,VALID,0,VALID,92.4773,VALID,0,VALID,24.6204,VALID,35,VALID,0.24375,
2008-06-21, 00:30:05,VALID,1004.12,VALID,0,VALID,92.4544,VALID,0,VALID,24.6009,VALID,35,VALID,0.267969,
2008-06-21, 00:31:05,VALID,1004.14,VALID,0,VALID,92.5078,VALID,0,VALID,24.599,VALID,35,VALID,0.425,
2008-06-21, 00:32:05,VALID,1004.14,VALID,0,VALID,92.607,VALID,0,VALID,24.6009,VALID,35,VALID,0.408984,
2008-06-21, 00:33:05,VALID,1004.13,VALID,0,VALID,92.6299,VALID,0,VALID,24.6009,VALID,33,VALID,0.366406,
2008-06-21, 00:34:05,VALID,1004.12,VALID,0,VALID,92.6451,VALID,0,VALID,24.5814,VALID,32,VALID,0.29375,
2008-06-21, 00:35:05,VALID,1004.12,VALID,0,VALID,92.6909,VALID,0,VALID,24.5814,VALID,32,VALID,0.180859,
2008-06-21, 00:36:05,VALID,1004.11,VALID,0,VALID,92.6222,VALID,0,VALID,24.5638,VALID,39,VALID,0.328516,
2008-06-21, 00:37:05,VALID,1004.12,VALID,0,VALID,92.4697,VALID,0,VALID,24.5425,VALID,44,VALID,0.476953,
2008-06-21, 00:38:05,VALID,1004.11,VALID,0,VALID,92.3934,VALID,0,VALID,24.562,VALID,44,VALID,0.333594,
2008-06-21, 00:39:05,VALID,1004.09,VALID,0,VALID,92.2942,VALID,0,VALID,24.5406,VALID,44,VALID,0.162109,
2008-06-21, 00:40:05,VALID,1004.09,VALID,0,VALID,92.2866,VALID,0,VALID,24.5796,VALID,44,VALID,0.269141,
2008-06-21, 00:41:05,VALID,1004.08,VALID,0,VALID,92.2027,VALID,0,VALID,24.6009,VALID,44,VALID,0.00664063,
2008-06-21, 00:42:05,VALID,1004.07,VALID,0,VALID,91.9967,VALID,0,VALID,24.6009,VALID,44,VALID,0.0457031,
2008-06-21, 00:43:05,VALID,1004.06,VALID,0,VALID,91.8365,VALID,0,VALID,24.6204,VALID,35,VALID,0.4875,
2008-06-21, 00:44:05,VALID,1004.05,VALID,0,VALID,91.8136,VALID,0,VALID,24.6398,VALID,35,VALID,0.364453,
2008-06-21, 00:45:05,VALID,1004.02,VALID,0,VALID,91.6686,VALID,0,VALID,24.6204,VALID,58,VALID,0.529297,
2008-06-21, 00:46:05,VALID,1004.05,VALID,0,VALID,91.6076,VALID,0,VALID,24.6204,VALID,58,VALID,0.228906,
2008-06-21, 00:47:05,VALID,1003.98,VALID,0,VALID,91.6,VALID,0,VALID,24.6398,VALID,58,VALID,0.119141,
2008-06-21, 00:48:05,VALID,1003.97,VALID,0,VALID,91.6076,VALID,0,VALID,24.6204,VALID,57,VALID,0.362109,
2008-06-21, 00:49:05,VALID,1003.94,VALID,0,VALID,91.6152,VALID,0,VALID,24.6204,VALID,58,VALID,0.233984,
2008-06-21, 00:50:05,VALID,1003.93,VALID,0,VALID,91.5542,VALID,0,VALID,24.5796,VALID,61,VALID,0.0734375,
2008-06-21, 00:51:05,VALID,1003.93,VALID,0,VALID,91.5618,VALID,0,VALID,24.6009,VALID,60,VALID,0.308984,
2008-06-21, 00:52:05,VALID,1003.91,VALID,0,VALID,91.5618,VALID,0,VALID,24.5601,VALID,55,VALID,0.503906,
2008-06-21, 00:53:05,VALID,1003.9,VALID,0,VALID,91.5771,VALID,0,VALID,24.5814,VALID,30,VALID,0.3375,
2008-06-21, 00:54:05,VALID,1003.88,VALID,0,VALID,91.5389,VALID,0,VALID,24.5601,VALID,30,VALID,0.259375,
2008-06-21, 00:55:05,VALID,1003.89,VALID,0,VALID,91.5771,VALID,0,VALID,24.5796,VALID,30,VALID,0,
2008-06-21, 00:56:05,VALID,1003.89,VALID,0,VALID,91.5084,VALID,0,VALID,24.5814,VALID,30,VALID,0.478125,
2008-06-21, 00:57:05,VALID,1003.88,VALID,0,VALID,91.5161,VALID,0,VALID,24.6009,VALID,358,VALID,0.0703125,
2008-06-21, 00:58:05,VALID,1003.86,VALID,0,VALID,91.3787,VALID,0,VALID,24.6009,VALID,358,VALID,0.167187,
2008-06-21, 00:59:05,VALID,1003.85,VALID,0,VALID,91.2643,VALID,0,VALID,24.599,VALID,13,VALID,0.444141,
2008-06-21, 01:00:05,VALID,1003.87,VALID,0,VALID,91.1651,VALID,0,VALID,24.6398,VALID,29,VALID,0.126563,
2008-06-21, 01:01:05,VALID,1003.89,VALID,0,VALID,90.921,VALID,0,VALID,24.6788,VALID,19,VALID,0.666797,
2008-06-21, 01:02:05,VALID,1003.87,VALID,0,VALID,90.8676,VALID,0.100563,VALID,24.6769,VALID,23,VALID,0.368359,
2008-06-21, 01:03:05,VALID,1003.88,VALID,0,VALID,90.8142,VALID,0,VALID,24.7177,VALID,25,VALID,0.30625,
2008-06-21, 01:04:05,VALID,1003.88,VALID,0,VALID,90.8981,VALID,0,VALID,24.7372,VALID,25,VALID,0.000390625,
2008-06-21, 01:05:05,VALID,1003.86,VALID,0,VALID,90.8981,VALID,0,VALID,24.7159,VALID,25,VALID,0.138281,
2008-06-21, 01:06:05,VALID,1003.87,VALID,0,VALID,90.7913,VALID,0,VALID,24.7177,VALID,25,VALID,0.351563,
2008-06-21, 01:07:05,VALID,1003.88,VALID,0,VALID,90.7989,VALID,0,VALID,24.7177,VALID,25,VALID,0.355469,
2008-06-21, 01:08:05,VALID,1003.86,VALID,0,VALID,90.7913,VALID,0.100563,VALID,24.6769,VALID,8,VALID,0.279687,
2008-06-21, 01:09:05,VALID,1003.85,VALID,0,VALID,90.6311,VALID,0,VALID,24.7177,VALID,31,VALID,0.398047,
2008-06-21, 01:10:05,VALID,1003.85,VALID,0,VALID,90.6235,VALID,0,VALID,24.7196,VALID,50,VALID,0.0679687,
2008-06-21, 01:11:05,VALID,1003.85,VALID,0,VALID,90.509,VALID,0,VALID,24.7159,VALID,50,VALID,0.182422,
2008-06-21, 01:12:05,VALID,1003.86,VALID,0,VALID,90.5243,VALID,0,VALID,24.7177,VALID,50,VALID,0.0558594,
2008-06-21, 01:13:05,VALID,1003.87,VALID,0,VALID,90.5167,VALID,0,VALID,24.7159,VALID,50,VALID,0,
2008-06-21, 01:14:05,VALID,1003.82,VALID,0,VALID,90.4709,VALID,0,VALID,24.7177,VALID,50,VALID,0.264453,
2008-06-21, 01:15:05,VALID,1003.83,VALID,0,VALID,90.4022,VALID,0,VALID,24.7159,VALID,50,VALID,0.148438,
2008-06-21, 01:16:05,VALID,1003.86,VALID,0,VALID,90.3641,VALID,0,VALID,24.7372,VALID,32,VALID,0.444922,
2008-06-21, 01:17:05,VALID,1003.84,VALID,0,VALID,90.3107,VALID,0,VALID,24.7372,VALID,32,VALID,0.307813,
2008-06-21, 01:18:05,VALID,1003.87,VALID,0,VALID,90.2725,VALID,0,VALID,24.7372,VALID,32,VALID,0.407422,
2008-06-21, 01:19:05,VALID,1003.87,VALID,0,VALID,90.242,VALID,0,VALID,24.7372,VALID,29,VALID,0.453906,
2008-06-21, 01:20:05,VALID,1003.88,VALID,0,VALID,90.2573,VALID,0,VALID,24.7353,VALID,22,VALID,0.440625,
2008-06-21, 01:21:05,VALID,1003.9,VALID,0,VALID,90.3565,VALID,0,VALID,24.7761,VALID,22,VALID,0.474219,
2008-06-21, 01:22:05,VALID,1003.91,VALID,0,VALID,90.2039,VALID,0,VALID,24.7761,VALID,15,VALID,0.323438,
2008-06-21, 01:23:05,VALID,1003.9,VALID,0,VALID,90.242,VALID,0.100563,VALID,24.7937,VALID,15,VALID,0.323438,
2008-06-21, 01:24:05,VALID,1003.91,VALID,0,VALID,90.3031,VALID,0,VALID,24.7743,VALID,15,VALID,0.343359,
2008-06-21, 01:25:05,VALID,1003.94,VALID,0,VALID,90.0742,VALID,0,VALID,24.7743,VALID,15,VALID,0.407422,
2008-06-21, 01:26:04,VALID,1003.91,VALID,0,VALID,90.1429,VALID,0,VALID,24.7937,VALID,15,VALID,0.327734,
2008-06-21, 01:27:04,VALID,1003.92,VALID,0,VALID,90.12,VALID,0,VALID,24.7743,VALID,15,VALID,0.269531,
2008-06-21, 01:28:04,VALID,1003.93,VALID,0,VALID,90.2191,VALID,0,VALID,24.7743,VALID,15,VALID,0.204297,
2008-06-21, 01:29:04,VALID,1003.94,VALID,0,VALID,90.2649,VALID,0,VALID,24.7956,VALID,15,VALID,0,
2008-06-21, 01:30:04,VALID,1003.95,VALID,0,VALID,90.2878,VALID,0,VALID,24.7956,VALID,15,VALID,0.34375,
2008-06-21, 01:31:04,VALID,1003.92,VALID,0,VALID,90.2344,VALID,0,VALID,24.7956,VALID,15,VALID,0.199609,
2008-06-21, 01:32:04,VALID,1003.94,VALID,0,VALID,90.3412,VALID,0,VALID,24.8151,VALID,15,VALID,0.141797,
2008-06-21, 01:33:04,VALID,1003.91,VALID,0,VALID,90.3946,VALID,0,VALID,24.8151,VALID,15,VALID,0.227734,
2008-06-21, 01:34:04,VALID,1003.92,VALID,0,VALID,90.3259,VALID,0,VALID,24.817,VALID,15,VALID,0.065625,
2008-06-21, 01:35:04,VALID,1003.92,VALID,0,VALID,90.4251,VALID,0,VALID,24.7761,VALID,15,VALID,0.322266,
2008-06-21, 01:36:04,VALID,1003.9,VALID,0,VALID,90.4938,VALID,0,VALID,24.7353,VALID,15,VALID,0,
2008-06-21, 01:37:04,VALID,1003.89,VALID,0,VALID,90.5624,VALID,0,VALID,24.7177,VALID,15,VALID,0,
2008-06-21, 01:38:04,VALID,1003.88,VALID,0,VALID,90.6998,VALID,0,VALID,24.6769,VALID,15,VALID,0,
2008-06-21, 01:39:04,VALID,1003.86,VALID,0,VALID,90.86,VALID,0,VALID,24.6593,VALID,15,VALID,0,
2008-06-21, 01:40:04,VALID,1003.83,VALID,0,VALID,91.0431,VALID,0,VALID,24.638,VALID,19,VALID,0.567187,
2008-06-21, 01:41:04,VALID,1003.86,VALID,0,VALID,91.2033,VALID,0,VALID,24.6398,VALID,19,VALID,0,
2008-06-21, 01:42:04,VALID,1003.85,VALID,0,VALID,91.4626,VALID,0,VALID,24.6398,VALID,19,VALID,0,
2008-06-21, 01:43:04,VALID,1003.83,VALID,0,VALID,91.5161,VALID,0,VALID,24.6009,VALID,19,VALID,0.312891,
2008-06-21, 01:44:04,VALID,1003.83,VALID,0,VALID,91.5847,VALID,0,VALID,24.5601,VALID,19,VALID,0.375781,
2008-06-21, 01:45:04,VALID,1003.82,VALID,0,VALID,91.6915,VALID,0,VALID,24.562,VALID,19,VALID,0.289453,
2008-06-21, 01:46:04,VALID,1003.79,VALID,0,VALID,91.7525,VALID,0,VALID,24.5425,VALID,19,VALID,0.418359,
2008-06-21, 01:47:04,VALID,1003.78,VALID,0,VALID,91.8517,VALID,0,VALID,24.5035,VALID,19,VALID,0.280859,
2008-06-21, 01:48:04,VALID,1003.67,VALID,0,VALID,91.9433,VALID,0,VALID,24.4841,VALID,19,VALID,0.250781,
2008-06-21, 01:49:04,VALID,1003.83,VALID,0,VALID,91.9738,VALID,0,VALID,24.4859,VALID,19,VALID,0.357812,
2008-06-21, 01:50:04,VALID,1003.4,VALID,0,VALID,92.0348,VALID,0,VALID,24.4646,VALID,19,VALID,0,
2008-06-21, 01:51:04,VALID,1003.44,VALID,0,VALID,92.073,VALID,0,VALID,24.4451,VALID,19,VALID,0.163281,
2008-06-21, 06:31:04,VALID,1003.87,VALID,0,VALID,90.6082,VALID,44.9516,VALID,24.7956,VALID,46,VALID,0.397656,
2008-06-21, 06:32:04,VALID,1003.87,VALID,0,VALID,90.5472,VALID,48.5719,VALID,24.7743,VALID,46,VALID,0.182031,
2008-06-21, 06:33:04,VALID,1003.89,VALID,0,VALID,90.4556,VALID,52.0916,VALID,24.7937,VALID,46,VALID,0,
2008-06-21, 06:34:04,VALID,1003.88,VALID,0,VALID,90.3031,VALID,55.4102,VALID,24.7937,VALID,46,VALID,0,
2008-06-21, 06:35:04,VALID,1003.89,VALID,0,VALID,90.1963,VALID,58.5276,VALID,24.8522,VALID,46,VALID,0,
2008-06-21, 06:36:04,VALID,1003.89,VALID,0,VALID,90.0742,VALID,61.6451,VALID,24.8911,VALID,46,VALID,0,
2008-06-21, 06:37:04,VALID,1003.89,VALID,0,VALID,89.7843,VALID,64.9637,VALID,24.93,VALID,71,VALID,0.398047,
2008-06-21, 06:38:04,VALID,1003.92,VALID,0,VALID,89.7538,VALID,68.3828,VALID,25.0079,VALID,64,VALID,0.296484,
2008-06-21, 06:39:04,VALID,1003.93,VALID,0,VALID,89.3647,VALID,72.2042,VALID,25.0469,VALID,78,VALID,0.476563,
2008-06-21, 06:40:04,VALID,1003.96,VALID,0,VALID,89.4868,VALID,75.925,VALID,25.1461,VALID,77,VALID,0.428516,
2008-06-21, 06:41:04,VALID,1003.94,VALID,0,VALID,89.6622,VALID,79.5453,VALID,25.1832,VALID,76,VALID,0.256641,
2008-06-21, 06:42:04,VALID,1003.97,VALID,0,VALID,89.769,VALID,82.8639,VALID,25.2416,VALID,76,VALID,0,
2008-06-21, 06:43:04,VALID,1003.99,VALID,0,VALID,89.502,VALID,85.8808,VALID,25.2611,VALID,76,VALID,0.196875,
2008-06-21, 06:44:04,VALID,1004.02,VALID,0,VALID,89.5936,VALID,89.0988,VALID,25.339,VALID,76,VALID,0.0914062,
2008-06-21, 06:45:04,VALID,1004.01,VALID,0,VALID,89.0367,VALID,92.1157,VALID,25.3779,VALID,72,VALID,0.536328,
2008-06-21, 06:46:04,VALID,1004.05,VALID,0,VALID,89.2198,VALID,95.4342,VALID,25.4753,VALID,72,VALID,0.0148437,
2008-06-21, 06:47:04,VALID,1004.03,VALID,0,VALID,88.968,VALID,97.3449,VALID,25.5532,VALID,80,VALID,0.327344,
2008-06-21, 06:48:04,VALID,1004.09,VALID,0,VALID,88.5179,VALID,98.8534,VALID,25.6311,VALID,39,VALID,0.480078,
2008-06-21, 06:49:04,VALID,1004.14,VALID,0,VALID,88.1365,VALID,101.569,VALID,25.7694,VALID,35,VALID,0.144531,
2008-06-21, 06:50:04,VALID,1004.16,VALID,0,VALID,87.0074,VALID,105.39,VALID,25.8259,VALID,73,VALID,0.690625,
2008-06-21, 06:51:04,VALID,1004.2,VALID,0,VALID,87.015,VALID,110.418,VALID,25.9232,VALID,70,VALID,0.262891,
2008-06-21, 06:52:04,VALID,1004.22,VALID,0,VALID,85.9393,VALID,115.748,VALID,26.0616,VALID,55,VALID,0.467969,
2008-06-21, 06:53:04,VALID,1004.25,VALID,0,VALID,85.6494,VALID,117.156,VALID,26.159,VALID,79,VALID,0.319531,
2008-06-21, 06:54:04,VALID,1004.26,VALID,0,VALID,84.5204,VALID,119.268,VALID,26.2369,VALID,64,VALID,0.957422,
2008-06-21, 06:55:04,VALID,1004.27,VALID,0,VALID,84.322,VALID,123.692,VALID,26.3343,VALID,77,VALID,0.311719,
2008-06-21, 06:56:04,VALID,1004.32,VALID,0,VALID,84.116,VALID,131.838,VALID,26.4512,VALID,84,VALID,0.0867188,
2008-06-21, 06:57:04,VALID,1004.31,VALID,0,VALID,82.903,VALID,153.057,VALID,26.4707,VALID,71,VALID,1.07305,
2008-06-21, 06:58:04,VALID,1004.35,VALID,0,VALID,83.315,VALID,144.811,VALID,26.5291,VALID,73,VALID,0.45625,
2008-06-21, 06:59:04,VALID,1004.39,VALID,0,VALID,82.781,VALID,155.47,VALID,26.607,VALID,69,VALID,0.364844,
2008-06-21, 07:00:04,VALID,1004.43,VALID,0,VALID,82.514,VALID,167.84,VALID,26.685,VALID,76,VALID,0.354688,
2008-06-21, 07:01:04,VALID,1004.45,VALID,0,VALID,82.2393,VALID,172.164,VALID,26.7629,VALID,84,VALID,0.486719,
2008-06-21, 07:02:04,VALID,1004.47,VALID,0,VALID,82.5521,VALID,225.16,VALID,26.8214,VALID,88,VALID,0.119922,
2008-06-21, 07:03:04,VALID,1004.48,VALID,0,VALID,82.7428,VALID,206.657,VALID,26.8993,VALID,117,VALID,0.439453,
2008-06-21, 07:04:04,VALID,1004.51,VALID,0,VALID,81.7892,VALID,185.438,VALID,26.9578,VALID,78,VALID,0.507031,
2008-06-21, 07:05:04,VALID,1004.51,VALID,0,VALID,81.6061,VALID,175.08,VALID,27.0552,VALID,77,VALID,0.625391,
2008-06-21, 07:06:04,VALID,1004.55,VALID,0,VALID,81.0492,VALID,191.371,VALID,27.0552,VALID,77,VALID,0.733984,
2008-06-21, 07:07:04,VALID,1004.56,VALID,0,VALID,81.568,VALID,201.528,VALID,27.1136,VALID,99,VALID,0.5875,
2008-06-21, 07:08:04,VALID,1004.58,VALID,0,VALID,81.0797,VALID,184.634,VALID,27.1916,VALID,104,VALID,0.598828,
2008-06-21, 07:09:04,VALID,1004.59,VALID,0,VALID,80.8509,VALID,197.003,VALID,27.248,VALID,75,VALID,0.531641,
2008-06-21, 07:10:04,VALID,1004.62,VALID,0,VALID,79.7065,VALID,159.593,VALID,27.2695,VALID,85,VALID,1.04648,
2008-06-21, 07:11:04,VALID,1004.61,VALID,0,VALID,79.8515,VALID,160.498,VALID,27.2675,VALID,105,VALID,0.836719,
2008-06-21, 07:12:04,VALID,1004.65,VALID,0,VALID,80.1719,VALID,143.503,VALID,27.3064,VALID,115,VALID,0.0925781,
2008-06-21, 07:13:04,VALID,1004.63,VALID,0,VALID,80.5076,VALID,133.447,VALID,27.3844,VALID,107,VALID,0.216797,
2008-06-21, 07:14:04,VALID,1004.65,VALID,0,VALID,79.8133,VALID,127.816,VALID,27.3844,VALID,104,VALID,0.528516,
2008-06-21, 07:15:04,VALID,1004.65,VALID,0,VALID,79.9964,VALID,135.458,VALID,27.3844,VALID,84,VALID,0.6375,
2008-06-21, 07:16:04,VALID,1004.65,VALID,0,VALID,79.6684,VALID,119.268,VALID,27.3454,VALID,107,VALID,1.00039,
2008-06-21, 07:17:04,VALID,1004.68,VALID,0,VALID,79.882,VALID,133.145,VALID,27.328,VALID,101,VALID,1.06289,
2008-06-21, 07:18:04,VALID,1004.68,VALID,0,VALID,80.4542,VALID,168.946,VALID,27.2695,VALID,100,VALID,0.377344,
2008-06-21, 07:19:04,VALID,1004.7,VALID,0,VALID,79.821,VALID,172.164,VALID,27.3085,VALID,89,VALID,0.689453,
2008-06-21, 07:20:04,VALID,1004.73,VALID,0,VALID,80.7441,VALID,119.167,VALID,27.328,VALID,92,VALID,0.567578,
2008-06-21, 07:21:04,VALID,1004.71,VALID,0,VALID,79.821,VALID,100.764,VALID,27.367,VALID,90,VALID,0.373047,
2008-06-21, 07:22:04,VALID,1004.73,VALID,0,VALID,79.7905,VALID,103.68,VALID,27.3865,VALID,99,VALID,0.628906,
2008-06-21, 07:23:04,VALID,1004.75,VALID,0,VALID,79.9049,VALID,188.153,VALID,27.4059,VALID,98,VALID,0.366406,
2008-06-21, 07:24:04,VALID,1004.73,VALID,0,VALID,80.3169,VALID,170.957,VALID,27.4644,VALID,94,VALID,0.492188,
2008-06-21, 07:25:04,VALID,1004.76,VALID,0,VALID,79.5463,VALID,164.018,VALID,27.4623,VALID,66,VALID,0.492578,
2008-06-21, 07:26:04,VALID,1004.74,VALID,0,VALID,78.1808,VALID,167.337,VALID,27.4839,VALID,95,VALID,0.941016,
2008-06-21, 07:27:04,VALID,1004.74,VALID,0,VALID,79.1344,VALID,178.901,VALID,27.486,VALID,95,VALID,0.817578,
2008-06-21, 07:28:04,VALID,1004.77,VALID,0,VALID,79.2488,VALID,197.003,VALID,27.486,VALID,95,VALID,0.683203,
2008-06-21, 07:29:04,VALID,1004.76,VALID,0,VALID,79.9812,VALID,218.724,VALID,27.4839,VALID,92,VALID,0.495703,
2008-06-21, 07:30:04,VALID,1004.76,VALID,0,VALID,79.4243,VALID,243.865,VALID,27.5639,VALID,80,VALID,0.735156,
2008-06-21, 07:31:04,VALID,1004.78,VALID,0,VALID,79.1573,VALID,260.458,VALID,27.6419,VALID,78,VALID,0.434375,
2008-06-21, 07:32:04,VALID,1004.77,VALID,0,VALID,79.5769,VALID,273.632,VALID,27.7199,VALID,92,VALID,0.324219,
2008-06-21, 07:33:04,VALID,1004.81,VALID,0,VALID,77.1814,VALID,281.275,VALID,27.7783,VALID,102,VALID,1.02578,
2008-06-21, 07:34:04,VALID,1004.78,VALID,0,VALID,78.8903,VALID,287.912,VALID,27.8563,VALID,98,VALID,0.466797,
2008-06-21, 07:35:04,VALID,1004.78,VALID,0,VALID,77.5857,VALID,295.052,VALID,27.9538,VALID,93,VALID,1.08672,
2008-06-21, 07:36:04,VALID,1004.77,VALID,0,VALID,76.1667,VALID,283.085,VALID,27.9148,VALID,86,VALID,1.65664,
2008-06-21, 07:37:04,VALID,1004.77,VALID,0,VALID,77.2577,VALID,292.739,VALID,27.9321,VALID,79,VALID,0.844922,
2008-06-21, 07:38:04,VALID,1004.8,VALID,0,VALID,77.4484,VALID,296.862,VALID,27.9733,VALID,84,VALID,0.588281,
2008-06-21, 07:39:04,VALID,1004.8,VALID,0,VALID,75.6098,VALID,302.091,VALID,28.0122,VALID,80,VALID,0.427344,
2008-06-21, 07:40:04,VALID,1004.81,VALID,0,VALID,76.2201,VALID,305.41,VALID,28.0317,VALID,78,VALID,1.04648,
2008-06-21, 07:41:04,VALID,1004.8,VALID,0,VALID,76.5787,VALID,309.734,VALID,28.0728,VALID,84,VALID,0.985547,
2008-06-21, 07:42:04,VALID,1004.8,VALID,0,VALID,75.5717,VALID,303.801,VALID,28.1097,VALID,109,VALID,0.676953,
2008-06-21, 07:43:04,VALID,1004.83,VALID,0,VALID,78.4096,VALID,292.035,VALID,28.1444,VALID,95,VALID,0.540234,
2008-06-21, 07:44:04,VALID,1004.82,VALID,0,VALID,76.3575,VALID,290.526,VALID,28.2245,VALID,82,VALID,0.961719,
2008-06-21, 07:45:04,VALID,1004.83,VALID,0,VALID,75.4573,VALID,302.393,VALID,28.2656,VALID,118,VALID,1.06875,
2008-06-21, 07:46:04,VALID,1004.84,VALID,0,VALID,76.9525,VALID,324.014,VALID,28.2072,VALID,90,VALID,0.840234,
2008-06-21, 07:47:04,VALID,1004.87,VALID,0,VALID,75.9379,VALID,354.786,VALID,28.283,VALID,76,VALID,0.697656,
2008-06-21, 07:48:04,VALID,1004.85,VALID,0,VALID,75.8616,VALID,389.078,VALID,28.4216,VALID,75,VALID,0.720312,
2008-06-21, 07:49:04,VALID,1004.84,VALID,0,VALID,76.0676,VALID,435.236,VALID,28.5386,VALID,138,VALID,1.27734,
2008-06-21, 07:50:04,VALID,1004.89,VALID,0,VALID,76.1667,VALID,470.132,VALID,28.4974,VALID,123,VALID,1.325,
2008-06-21, 07:51:04,VALID,1004.9,VALID,0,VALID,76.3117,VALID,473.45,VALID,28.5386,VALID,129,VALID,1.25391,
2008-06-21, 07:52:04,VALID,1004.93,VALID,0,VALID,74.2137,VALID,461.182,VALID,28.5386,VALID,88,VALID,1.24766,
2008-06-21, 07:53:04,VALID,1004.95,VALID,0,VALID,75.4115,VALID,472.244,VALID,28.6144,VALID,122,VALID,1.26484,
2008-06-21, 07:54:04,VALID,1004.97,VALID,0,VALID,74.6333,VALID,482.602,VALID,28.5559,VALID,101,VALID,0.936328,
2008-06-21, 07:55:04,VALID,1005.02,VALID,0,VALID,75.5946,VALID,475.26,VALID,28.6945,VALID,76,VALID,1.06445,
2008-06-21, 07:56:04,VALID,1005.01,VALID,0,VALID,74.5647,VALID,424.778,VALID,28.6945,VALID,116,VALID,1.375,
2008-06-21, 07:57:04,VALID,1005.04,VALID,0,VALID,73.0847,VALID,371.178,VALID,28.7942,VALID,89,VALID,1.36797,
2008-06-21, 07:58:04,VALID,1005.05,VALID,0,VALID,73.4509,VALID,325.221,VALID,28.753,VALID,107,VALID,1.70859,
2008-06-21, 07:59:04,VALID,1005.06,VALID,0,VALID,74.4579,VALID,278.459,VALID,28.7509,VALID,87,VALID,0.851563,
2008-06-21, 08:00:04,VALID,1005.09,VALID,0,VALID,74.6562,VALID,299.678,VALID,28.753,VALID,96,VALID,0.923828,
2008-06-21, 08:01:04,VALID,1005.07,VALID,0,VALID,72.6422,VALID,387.972,VALID,28.6924,VALID,127,VALID,1.88711,
2008-06-21, 08:02:04,VALID,1005.05,VALID,0,VALID,73.5272,VALID,328.137,VALID,28.6945,VALID,150,VALID,2.63438,
2008-06-21, 08:03:04,VALID,1005.06,VALID,0,VALID,74.7478,VALID,279.364,VALID,28.5754,VALID,135,VALID,2.17617,
2008-06-21, 08:04:04,VALID,1005.05,VALID,0,VALID,75.77,VALID,266.492,VALID,28.5559,VALID,117,VALID,1.31055,
2008-06-21, 08:05:04,VALID,1005.06,VALID,0,VALID,74.8546,VALID,263.877,VALID,28.4801,VALID,124,VALID,1.31523,
2008-06-21, 08:06:04,VALID,1005.02,VALID,0,VALID,76.2812,VALID,264.38,VALID,28.5169,VALID,136,VALID,1.10117,
2008-06-21, 08:07:04,VALID,1005.05,VALID,0,VALID,75.4801,VALID,265.184,VALID,28.4974,VALID,130,VALID,1.4418,
2008-06-21, 08:08:04,VALID,1005.04,VALID,0,VALID,74.969,VALID,268,VALID,28.5191,VALID,121,VALID,1.60703,
2008-06-21, 08:09:04,VALID,1005.07,VALID,0,VALID,74.8927,VALID,279.867,VALID,28.4411,VALID,120,VALID,1.16055,
2008-06-21, 08:10:04,VALID,1005.05,VALID,0,VALID,75.6861,VALID,288.817,VALID,28.4,VALID,114,VALID,1.36094,
2008-06-21, 08:11:04,VALID,1005.03,VALID,0,VALID,76.121,VALID,291.633,VALID,28.4021,VALID,145,VALID,1.24102,
2008-06-21, 08:12:04,VALID,1005.04,VALID,0,VALID,76.037,VALID,288.012,VALID,28.4216,VALID,99,VALID,1.18438,
2008-06-21, 08:13:04,VALID,1005.06,VALID,0,VALID,75.3504,VALID,292.839,VALID,28.4606,VALID,134,VALID,1.53906,
2008-06-21, 08:14:04,VALID,1005.06,VALID,0,VALID,75.2971,VALID,291.029,VALID,28.4411,VALID,107,VALID,2.20625,
2008-06-21, 08:15:04,VALID,1005.1,VALID,0,VALID,74.0001,VALID,293.744,VALID,28.4216,VALID,142,VALID,1.82344,
2008-06-21, 08:16:04,VALID,1005.09,VALID,0,VALID,75.8921,VALID,295.454,VALID,28.4,VALID,143,VALID,1.65937,
2008-06-21, 08:17:04,VALID,1005.08,VALID,0,VALID,75.8006,VALID,298.169,VALID,28.3805,VALID,105,VALID,0.832031,
2008-06-21, 08:18:04,VALID,1005.09,VALID,0,VALID,75.4039,VALID,318.885,VALID,28.3805,VALID,117,VALID,1.28086,
2008-06-21, 08:19:04,VALID,1005.09,VALID,0,VALID,75.8616,VALID,388.274,VALID,28.4,VALID,131,VALID,0.659766,